Weather History for Fairmont, MN

Change the Weather History Date:

Friday, November 1, 2013

  Actual Average Record
Temperature  
Mean Temperature 46 °F -  
Max Temperature 53 °F 49 °F 70 °F (1990)
Min Temperature 39 °F 34 °F 11 °F (1951)
Degree Days  
Heating Degree Days 19    
Moisture  
Dew Point 35 °F    
Average Humidity 72    
Maximum Humidity 87    
Minimum Humidity 51    
Precipitation  
Precipitation 0.00 in - - ()
Sea Level Pressure  
Sea Level Pressure 29.66 in    
Wind  
Wind Speed 12 mph (NW)    
Max Wind Speed 23 mph    
Max Gust Speed 29 mph    
Visibility 10 miles    
Events      
Averages and records for this station are not official NWS values.
T = Trace of Precipitation, MM = Missing Value Source: NWS Daily Summary

Daily Weather History Graph

Daily Weather History Graph

Search for Another Location

Airport:

Trip Planner

Search our weather history database for the weather conditions in past years. The results will help you decide how hot, cold, wet, or windy it might be!

Date:

Astronomy

Nov. 01, 2013 Rise Set
Actual Time 7:53 AM CDT 6:08 PM CDT
Civil Twilight 7:23 AM CDT 6:37 PM CDT
Nautical Twilight 6:49 AM CDT 7:11 PM CDT
Astronomical Twilight 6:16 AM CDT 7:45 PM CDT
Moon 5:43 AM CDT (11/1) 5:04 PM CDT (11/1)
Length of Visible Light 11h 14m
Length of Day
10h 14m
Waning Crescent, 4% of the Moon is Illuminated
Nov 1
Waning Crescent
Nov 3
New
Nov 9
First Quarter
Nov 17
Full
Nov 25
Last Quarter

Hourly Weather History & Observations

Time (CDT) Temp. Windchill Dew Point Humidity Pressure Visibility Wind Dir Wind Speed Gust Speed Precip Events Conditions
12:15 AM 39.2 °F 33.6 °F 35.6 °F 87% 29.47 in 10.0 mi WNW 8.1 mph - N/A   Overcast
12:35 AM 39.2 °F 33.6 °F 35.6 °F 87% 29.47 in 10.0 mi WNW 8.1 mph - N/A   Overcast
12:55 AM 39.2 °F 33.0 °F 35.6 °F 87% 29.48 in 10.0 mi WNW 9.2 mph - N/A   Overcast
1:15 AM 39.2 °F 33.0 °F 35.6 °F 87% 29.48 in 10.0 mi WNW 9.2 mph - N/A   Overcast
1:35 AM 39.2 °F 33.6 °F 35.6 °F 87% 29.49 in 10.0 mi WNW 8.1 mph - N/A   Overcast
1:55 AM 39.2 °F 32.5 °F 35.6 °F 87% 29.49 in 10.0 mi WNW 10.4 mph - N/A   Overcast
2:15 AM 39.2 °F 32.5 °F 35.6 °F 87% 29.49 in 10.0 mi WNW 10.4 mph - N/A   Overcast
2:35 AM 41.0 °F 34.7 °F 35.6 °F 81% 29.50 in 10.0 mi WNW 10.4 mph - N/A   Overcast
2:55 AM 41.0 °F 33.9 °F 35.6 °F 81% 29.51 in 10.0 mi WNW 12.7 mph - N/A   Overcast
3:15 AM 41.0 °F 34.3 °F 35.6 °F 81% 29.51 in 10.0 mi WNW 11.5 mph - N/A   Overcast
3:35 AM 41.0 °F 34.3 °F 35.6 °F 81% 29.52 in 10.0 mi WNW 11.5 mph - N/A   Overcast
3:55 AM 41.0 °F 34.3 °F 35.6 °F 81% 29.52 in 10.0 mi WNW 11.5 mph - N/A   Overcast
4:15 AM 41.0 °F 34.3 °F 35.6 °F 81% 29.53 in 10.0 mi WNW 11.5 mph - N/A   Overcast
4:35 AM 41.0 °F 34.3 °F 35.6 °F 81% 29.54 in 10.0 mi WNW 11.5 mph - N/A   Overcast
4:55 AM 41.0 °F 34.3 °F 35.6 °F 81% 29.54 in 10.0 mi WNW 11.5 mph - N/A   Overcast
5:15 AM 41.0 °F 34.7 °F 35.6 °F 81% 29.55 in 10.0 mi WNW 10.4 mph - N/A   Overcast
5:35 AM 41.0 °F 33.9 °F 35.6 °F 81% 29.56 in 10.0 mi WNW 12.7 mph - N/A   Overcast
5:55 AM 39.2 °F 32.5 °F 33.8 °F 81% 29.57 in 10.0 mi WNW 10.4 mph - N/A   Overcast
6:15 AM 39.2 °F 32.0 °F 33.8 °F 81% 29.57 in 10.0 mi WNW 11.5 mph - N/A   Overcast
6:35 AM 39.2 °F 31.6 °F 33.8 °F 81% 29.58 in 10.0 mi WNW 12.7 mph - N/A   Mostly Cloudy
6:55 AM 39.2 °F 32.0 °F 33.8 °F 81% 29.59 in 10.0 mi WNW 11.5 mph - N/A   Overcast
7:15 AM 39.2 °F 31.6 °F 33.8 °F 81% 29.59 in 10.0 mi WNW 12.7 mph - N/A   Overcast
7:35 AM 39.2 °F 32.0 °F 33.8 °F 81% 29.59 in 10.0 mi WNW 11.5 mph - N/A   Overcast
7:55 AM 39.2 °F 32.0 °F 33.8 °F 81% 29.60 in 10.0 mi WNW 11.5 mph - N/A   Scattered Clouds
8:15 AM 39.2 °F 31.6 °F 33.8 °F 81% 29.61 in 10.0 mi WNW 12.7 mph - N/A   Clear
8:35 AM 39.2 °F 32.0 °F 33.8 °F 81% 29.61 in 10.0 mi WNW 11.5 mph - N/A   Clear
8:55 AM 39.2 °F 32.0 °F 33.8 °F 81% 29.62 in 10.0 mi WNW 11.5 mph - N/A   Partly Cloudy
9:15 AM 39.2 °F 31.6 °F 33.8 °F 81% 29.63 in 10.0 mi WNW 12.7 mph - N/A   Partly Cloudy
9:35 AM 39.2 °F 31.2 °F 33.8 °F 81% 29.63 in 10.0 mi WNW 13.8 mph - N/A   Clear
9:55 AM 41.0 °F 33.5 °F 33.8 °F 76% 29.63 in 10.0 mi WNW 13.8 mph 18.4 mph N/A   Clear
10:15 AM 42.8 °F 35.8 °F 33.8 °F 70% 29.64 in 10.0 mi WNW 13.8 mph - N/A   Clear
10:35 AM 44.6 °F 37.8 °F 33.8 °F 66% 29.65 in 10.0 mi WNW 15.0 mph - N/A   Clear
10:55 AM 44.6 °F 37.8 °F 33.8 °F 66% 29.65 in 10.0 mi WNW 15.0 mph - N/A   Clear
11:15 AM 46.4 °F 40.7 °F 35.6 °F 66% 29.65 in 10.0 mi WNW 12.7 mph 18.4 mph N/A   Clear
11:35 AM 46.4 °F 40.4 °F 35.6 °F 66% 29.66 in 10.0 mi NW 13.8 mph 19.6 mph N/A   Partly Cloudy
11:55 AM 48.2 °F - 35.6 °F 62% 29.66 in 10.0 mi NW 15.0 mph - N/A   Scattered Clouds
12:15 PM 48.2 °F - 35.6 °F 62% 29.66 in 10.0 mi WNW 16.1 mph 20.7 mph N/A   Scattered Clouds
12:35 PM 48.2 °F - 35.6 °F 62% 29.66 in 10.0 mi NW 13.8 mph 20.7 mph N/A   Scattered Clouds
12:55 PM 50.0 °F - 35.6 °F 58% 29.66 in 10.0 mi WNW 12.7 mph 19.6 mph N/A   Scattered Clouds
1:15 PM 51.8 °F - 35.6 °F 54% 29.66 in 10.0 mi WNW 18.4 mph 23.0 mph N/A   Partly Cloudy
1:35 PM 53.6 °F - 35.6 °F 51% 29.66 in 10.0 mi WNW 16.1 mph 21.9 mph N/A   Scattered Clouds
1:55 PM 53.6 °F - 35.6 °F 51% 29.66 in 10.0 mi NW 16.1 mph 20.7 mph N/A   Scattered Clouds
2:15 PM 53.6 °F - 35.6 °F 51% 29.66 in 10.0 mi WNW 21.9 mph 27.6 mph N/A   Scattered Clouds
2:35 PM 51.8 °F - 35.6 °F 54% 29.67 in 10.0 mi NW 23.0 mph 28.8 mph N/A   Mostly Cloudy
2:55 PM 53.6 °F - 35.6 °F 51% 29.68 in 10.0 mi NW 15.0 mph - N/A   Mostly Cloudy
3:15 PM 53.6 °F - 37.4 °F 54% 29.68 in 10.0 mi NW 18.4 mph 25.3 mph N/A   Overcast
3:35 PM 53.6 °F - 35.6 °F 51% 29.68 in 10.0 mi NW 20.7 mph - N/A   Overcast
3:55 PM 53.6 °F - 35.6 °F 51% 29.69 in 10.0 mi NW 18.4 mph 23.0 mph N/A   Mostly Cloudy
4:15 PM 51.8 °F - 35.6 °F 54% 29.70 in 10.0 mi NW 15.0 mph - N/A   Mostly Cloudy
4:35 PM 51.8 °F - 35.6 °F 54% 29.70 in 10.0 mi NNW 17.3 mph - N/A   Mostly Cloudy
4:55 PM 50.0 °F - 35.6 °F 58% 29.72 in 10.0 mi NW 15.0 mph 21.9 mph N/A   Mostly Cloudy
5:15 PM 50.0 °F - 35.6 °F 58% 29.72 in 10.0 mi NNW 19.6 mph 25.3 mph N/A   Overcast
5:35 PM 48.2 °F - 35.6 °F 62% 29.73 in 10.0 mi NW 15.0 mph - N/A   Overcast
5:55 PM 48.2 °F - 33.8 °F 58% 29.74 in 10.0 mi NW 17.3 mph - N/A   Overcast
6:15 PM 48.2 °F - 35.6 °F 62% 29.74 in 10.0 mi NW 12.7 mph - N/A   Overcast
6:35 PM 48.2 °F - 35.6 °F 62% 29.76 in 10.0 mi NW 12.7 mph - N/A   Overcast
6:55 PM 46.4 °F 41.1 °F 35.6 °F 66% 29.77 in 10.0 mi NNW 11.5 mph - N/A   Overcast
7:15 PM 46.4 °F 39.8 °F 35.6 °F 66% 29.79 in 10.0 mi NW 16.1 mph - N/A   Overcast
7:35 PM 44.6 °F 37.4 °F 35.6 °F 71% 29.79 in 10.0 mi NW 16.1 mph 20.7 mph N/A   Overcast
7:55 PM 44.6 °F 37.8 °F 35.6 °F 71% 29.80 in 10.0 mi NW 15.0 mph 24.2 mph N/A   Mostly Cloudy
8:15 PM 42.8 °F 35.8 °F 35.6 °F 76% 29.80 in 10.0 mi NW 13.8 mph 20.7 mph N/A   Partly Cloudy
8:35 PM 42.8 °F 36.2 °F 35.6 °F 76% 29.81 in 10.0 mi NW 12.7 mph - N/A   Partly Cloudy
8:55 PM 42.8 °F 35.8 °F 35.6 °F 76% 29.81 in 10.0 mi NW 13.8 mph 19.6 mph N/A   Scattered Clouds
9:15 PM 42.8 °F 35.4 °F 35.6 °F 76% 29.82 in 10.0 mi NW 15.0 mph - N/A   Partly Cloudy
9:35 PM 42.8 °F 35.8 °F 35.6 °F 76% 29.83 in 10.0 mi NW 13.8 mph - N/A   Mostly Cloudy
9:55 PM 42.8 °F 35.4 °F 37.4 °F 81% 29.84 in 10.0 mi NW 15.0 mph - N/A   Overcast
10:15 PM 42.8 °F 35.8 °F 37.4 °F 81% 29.85 in 10.0 mi NNW 13.8 mph 20.7 mph N/A   Overcast
10:35 PM 42.8 °F 35.1 °F 37.4 °F 81% 29.86 in 10.0 mi NW 16.1 mph - N/A   Overcast
10:55 PM 42.8 °F 35.1 °F 37.4 °F 81% 29.87 in 10.0 mi NW 16.1 mph - N/A   Overcast
11:15 PM 42.8 °F 35.8 °F 37.4 °F 81% 29.87 in 10.0 mi NNW 13.8 mph - N/A   Overcast
11:35 PM 42.8 °F 34.8 °F 37.4 °F 81% 29.88 in 10.0 mi NW 17.3 mph - N/A   Overcast
11:55 PM 42.8 °F 35.1 °F 37.4 °F 81% 29.89 in 10.0 mi NW 16.1 mph - N/A   Overcast